Time,TemperatureF,DewpointF,PressureIn,WindDirection,WindDirectionDegrees,WindSpeedMPH,WindSpeedGustMPH,Humidity,HourlyPrecipIn,Conditions,Clouds,dailyrainin,SoftwareType,DateUTC
2013-10-07 00:00:00,42.0,-99.9,-100.00,SW,231,1.0,10.0,-999,-99.99,,,-99.99,,2013-10-07 06:00:00,
2013-10-07 00:53:00,42.0,-99.9,-100.00,SW,231,1.0,10.0,-999,-99.99,,,-99.99,,2013-10-07 06:53:00,
2013-10-07 01:00:00,41.0,-99.9,-100.00,WNW,297,7.0,7.0,-999,-99.99,,,-99.99,,2013-10-07 07:00:00,
2013-10-07 01:52:00,41.0,-99.9,-100.00,WNW,297,7.0,7.0,-999,-99.99,,,-99.99,,2013-10-07 07:52:00,
2013-10-07 02:00:00,41.0,-99.9,-100.00,WNW,295,4.0,5.0,-999,-99.99,,,-99.99,,2013-10-07 08:00:00,
2013-10-07 02:52:00,41.0,-99.9,-100.00,WNW,295,4.0,5.0,-999,-99.99,,,-99.99,,2013-10-07 08:52:00,
2013-10-07 03:00:00,39.0,-99.9,-100.00,West,279,3.0,5.0,-999,-99.99,,,-99.99,,2013-10-07 09:00:00,
2013-10-07 03:54:00,39.0,-99.9,-100.00,West,279,3.0,5.0,-999,-99.99,,,-99.99,,2013-10-07 09:54:00,
2013-10-07 04:00:00,39.0,-99.9,-100.00,WNW,299,5.0,6.0,-999,-99.99,,,-99.99,,2013-10-07 10:00:00,
2013-10-07 04:53:00,39.0,-99.9,-100.00,WNW,299,5.0,6.0,-999,-99.99,,,-99.99,,2013-10-07 10:53:00,
2013-10-07 05:00:00,39.0,-99.9,-100.00,ENE,63,2.0,8.0,-999,-99.99,,,-99.99,,2013-10-07 11:00:00,
2013-10-07 05:53:00,39.0,-99.9,-100.00,ENE,63,2.0,8.0,-999,-99.99,,,-99.99,,2013-10-07 11:53:00,
2013-10-07 06:00:00,37.0,-99.9,-100.00,NW,307,4.0,4.0,-999,-99.99,,,-99.99,,2013-10-07 12:00:00,
2013-10-07 06:53:00,37.0,-99.9,-100.00,NW,307,4.0,4.0,-999,-99.99,,,-99.99,,2013-10-07 12:53:00,
2013-10-07 07:00:00,37.0,-99.9,-100.00,West,273,4.0,4.0,-999,-99.99,,,-99.99,,2013-10-07 13:00:00,
2013-10-07 07:52:00,37.0,-99.9,-100.00,West,273,4.0,4.0,-999,-99.99,,,-99.99,,2013-10-07 13:52:00,
2013-10-07 08:00:00,41.0,-99.9,-100.00,WNW,292,5.0,7.0,-999,-99.99,,,-99.99,,2013-10-07 14:00:00,
2013-10-07 08:52:00,41.0,-99.9,-100.00,WNW,292,5.0,7.0,-999,-99.99,,,-99.99,,2013-10-07 14:52:00,
2013-10-07 09:00:00,48.0,-99.9,-100.00,West,280,10.0,12.0,-999,-99.99,,,-99.99,,2013-10-07 15:00:00,
2013-10-07 09:54:00,48.0,-99.9,-100.00,West,280,10.0,12.0,-999,-99.99,,,-99.99,,2013-10-07 15:54:00,
2013-10-07 10:00:00,57.0,-99.9,-100.00,West,270,6.0,12.0,-999,-99.99,,,-99.99,,2013-10-07 16:00:00,
2013-10-07 10:53:00,57.0,-99.9,-100.00,West,270,6.0,12.0,-999,-99.99,,,-99.99,,2013-10-07 16:53:00,
2013-10-07 11:00:00,62.0,-99.9,-100.00,West,276,8.0,10.0,-999,-99.99,,,-99.99,,2013-10-07 17:00:00,
2013-10-07 11:53:00,62.0,-99.9,-100.00,West,276,8.0,10.0,-999,-99.99,,,-99.99,,2013-10-07 17:53:00,
2013-10-07 12:00:00,69.0,-99.9,-100.00,WNW,286,5.0,8.0,-999,-99.99,,,-99.99,,2013-10-07 18:00:00,
2013-10-07 12:52:00,69.0,-99.9,-100.00,WNW,286,5.0,8.0,-999,-99.99,,,-99.99,,2013-10-07 18:52:00,
2013-10-07 13:00:00,75.0,-99.9,-100.00,SW,228,5.0,14.0,-999,-99.99,,,-99.99,,2013-10-07 19:00:00,
2013-10-07 13:53:00,75.0,-99.9,-100.00,SW,228,5.0,14.0,-999,-99.99,,,-99.99,,2013-10-07 19:53:00,
2013-10-07 14:00:00,77.0,-99.9,-100.00,West,262,8.0,15.0,-999,-99.99,,,-99.99,,2013-10-07 20:00:00,
2013-10-07 14:52:00,77.0,-99.9,-100.00,West,262,8.0,15.0,-999,-99.99,,,-99.99,,2013-10-07 20:52:00,
2013-10-07 15:00:00,80.0,-99.9,-100.00,West,262,10.0,12.0,-999,-99.99,,,-99.99,,2013-10-07 21:00:00,
2013-10-07 15:55:00,80.0,-99.9,-100.00,West,262,10.0,12.0,-999,-99.99,,,-99.99,,2013-10-07 21:55:00,
2013-10-07 16:00:00,80.0,-99.9,-100.00,West,281,9.0,9.0,-999,-99.99,,,-99.99,,2013-10-07 22:00:00,
2013-10-07 16:54:00,80.0,-99.9,-100.00,West,281,9.0,9.0,-999,-99.99,,,-99.99,,2013-10-07 22:54:00,
2013-10-07 17:00:00,80.0,-99.9,-100.00,SSW,208,1.0,2.0,-999,-99.99,,,-99.99,,2013-10-07 23:00:00,
2013-10-07 17:52:00,80.0,-99.9,-100.00,SSW,208,1.0,2.0,-999,-99.99,,,-99.99,,2013-10-07 23:52:00,
2013-10-07 18:00:00,75.0,-99.9,-100.00,ENE,73,2.0,2.0,-999,-99.99,,,-99.99,,2013-10-08 00:00:00,
2013-10-07 18:52:00,75.0,-99.9,-100.00,ENE,73,2.0,2.0,-999,-99.99,,,-99.99,,2013-10-08 00:52:00,
2013-10-07 19:00:00,66.0,-99.9,-100.00,SE,131,2.0,8.0,-999,-99.99,,,-99.99,,2013-10-08 01:00:00,
2013-10-07 19:52:00,66.0,-99.9,-100.00,SE,131,2.0,8.0,-999,-99.99,,,-99.99,,2013-10-08 01:52:00,
2013-10-07 20:00:00,64.0,-99.9,-100.00,SSW,199,5.0,11.0,-999,-99.99,,,-99.99,,2013-10-08 02:00:00,
2013-10-07 20:53:00,64.0,-99.9,-100.00,SSW,199,5.0,11.0,-999,-99.99,,,-99.99,,2013-10-08 02:53:00,
2013-10-07 21:00:00,60.0,-99.9,-100.00,South,187,10.0,13.0,-999,-99.99,,,-99.99,,2013-10-08 03:00:00,
2013-10-07 21:55:00,60.0,-99.9,-100.00,South,187,10.0,13.0,-999,-99.99,,,-99.99,,2013-10-08 03:55:00,
2013-10-07 22:00:00,59.0,-99.9,-100.00,South,185,9.0,18.0,-999,-99.99,,,-99.99,,2013-10-08 04:00:00,
2013-10-07 22:53:00,59.0,-99.9,-100.00,South,185,9.0,18.0,-999,-99.99,,,-99.99,,2013-10-08 04:53:00,
2013-10-07 23:00:00,57.0,-99.9,-100.00,WSW,238,3.0,7.0,-999,-99.99,,,-99.99,,2013-10-08 05:00:00,
2013-10-07 23:53:00,57.0,-99.9,-100.00,WSW,238,3.0,7.0,-999,-99.99,,,-99.99,,2013-10-08 05:53:00,